Location: Passau
(48.5830°N, 13.4830°E)
Time: 21:54:00
(UTC+02:00)

N. Korean satellite - Visible Passes

Search period start: 26 September 2021 00:00
Search period end: 06 October 2021 00:00
Orbit: 449 x 498 km, 97.3° (Epoch: 26 September)

Date Brightness Start Highest point End Pass type
(mag) Time Alt. Az. Time Alt. Az. Time Alt. Az.
27 Sep 7.8 06:09:23 10° NNE 06:12:49 45° E 06:16:17 10° S visible
28 Sep 9.3 05:42:01 10° NE 05:44:52 22° E 05:47:44 10° SSE visible
29 Sep 10.1 05:15:41 10° ENE 05:16:49 11° E 05:17:57 10° ESE visible
30 Sep 7.2 06:19:02 10° NNE 06:22:36 60° E 06:26:10 10° S visible
01 Oct 8.9 05:51:30 10° NE 05:54:39 28° E 05:57:49 10° SSE visible
02 Oct 9.8 05:24:32 10° NE 05:26:36 14° E 05:28:39 10° SE visible
03 Oct 6.7 06:28:38 10° NNE 06:32:15 80° ESE 06:35:53 10° S visible
04 Oct 8.3 06:00:56 10° NNE 06:04:19 36° E 06:07:42 10° SSE visible
05 Oct 9.6 05:33:40 10° NE 05:36:15 18° E 05:38:51 10° SE visible
